[[{"header":{"parameterUnit":"m.s-1","parameterCategory":1,"la1":30.2992,"la2":30.254,"lo1":-89.0895,"lo2":-89.0443,"dy":0.0025,"dx":0.0025,"nx":19,"ny":19,"refTime":"2026-03-30T09:00:00:Z","depth":0,"parameterNumber":2,"parameterNumberName":"U-component_of_WINDS"},"data":[0,0,0,-5.5247,-5.5251,-5.5456,-5.5457,-5.5714,-5.5716,0,0,0,0,0,0,0,0,0,0,0,-5.5182,-5.5184,-5.5246,-5.5251,-5.5456,-5.5457,-5.5714,-5.5716,0,0,0,0,0,0,0,0,0,0,0,-5.5181,-5.5183,-5.5185,-5.5252,-5.5456,-5.5457,-5.5713,-5.556,0,0,0,0,0,0,0,0,0,0,-5.5362,-5.5299,-5.5183,-5.5185,-5.5253,-5.5455,-5.5457,-5.5553,-5.557,-5.5619,0,-5.5661,0,-5.5693,-5.5733,-5.5734,0,0,0,-5.5254,-5.5285,-5.5344,-5.5186,-5.5255,-5.5455,-5.5364,-5.5563,-5.5582,-5.5641,-5.5665,-5.5674,-5.5697,-5.5735,-5.5736,-5.6008,-5.6009,0,0,-5.5243,-5.5217,-5.533,-5.5356,-5.5323,-5.5358,-5.5371,-5.5574,-5.5598,-5.5666,-5.5681,-5.5701,-5.5736,-5.5738,-5.6007,-5.6008,0,0,0,-5.5208,-5.5209,-5.5263,-5.5345,-5.5382,-5.5364,-5.5378,-5.5589,-5.5609,-5.5683,-5.5704,-5.5738,-5.5741,-5.6005,-5.6007,-5.6036,0,0,0,-5.5202,-5.5189,-5.5258,-5.5244,-5.5378,-5.5488,-5.5389,-5.5595,-5.5619,-5.5703,-5.5738,-5.5743,-5.6004,-5.6006,-5.6032,-5.6052,0,0,0,-5.517,-5.5185,-5.5214,-5.5242,-5.533,-5.5485,-5.5517,-5.56,-5.5631,-5.5734,-5.5744,-5.6003,-5.6006,-5.6029,-5.6048,-5.6114,0,0,0,-5.5129,-5.5238,-5.5214,-5.5344,-5.5328,-5.5502,-5.5516,-5.5648,-5.574,-5.5739,-5.6004,-5.6007,-5.6028,-5.6045,-5.6111,-5.6163,-5.6183,0,0,-5.5252,-5.5252,-5.533,-5.5315,-5.5486,-5.5473,-5.5651,-5.576,-5.5794,-5.5935,-5.5942,-5.6033,-5.6047,-5.6113,-5.6312,-5.6328,0,0,0,-5.536,-5.5416,-5.5467,-5.5553,-5.5639,-5.5714,-5.5799,-5.584,-5.596,-5.5861,-5.6078,-5.6087,-5.6127,-5.6153,-5.6167,-5.6201,-5.6019,-5.6019,-5.6018,-5.5494,-5.5532,-5.5664,-5.5726,-5.581,-5.5897,-5.5968,-5.6038,-5.6052,-5.6103,-5.6143,-5.6259,-5.6289,-5.6299,-5.6335,-5.6177,-5.6178,-5.6178,-5.6178,-5.5675,-5.5758,-5.5775,-5.5908,-5.5948,-5.6061,-5.615,-5.6156,-5.6267,-5.6232,-5.6269,-5.6223,-5.6315,-5.6348,-5.618,-5.618,-5.618,-5.6179,-5.6179,-5.5764,-5.581,-5.5858,-5.5986,-5.6081,-5.6142,-5.6247,-5.6281,-5.6314,-5.6351,-5.6396,-5.6395,-5.6396,-5.6371,-5.6371,-5.6372,-5.6372,-5.6372,-5.6372,-5.5835,-5.5888,-5.5972,-5.6073,-5.6133,-5.6216,-5.6306,-5.6366,-5.6441,-5.6457,-5.6457,-5.6464,-5.6319,-5.6278,-5.6379,-5.6378,-5.6377,-5.6376,-5.6376,-5.5997,-5.5966,-5.6095,-5.6155,-5.6276,-5.6367,-5.6411,-5.653,-5.6585,-5.6635,-5.6637,-5.6525,-5.6526,-5.6516,-5.6483,-5.663,-5.663,-5.663,-5.663,-5.6069,-5.6074,-5.6213,-5.6306,-5.6402,-5.6454,-5.6598,-5.6671,-5.674,-5.6777,-5.6761,-5.6722,-5.671,-5.6719,-5.6704,-5.6674,-5.6866,-5.6866,-5.6867,-5.6169,-5.6185,-5.6301,-5.6368,-5.6466,-5.6549,-5.6686,-5.6793,-5.6866,-5.6877,-5.6805,-5.6795,-5.6732,-5.671,-5.6714,-5.6691,-5.6635,0,0]},{"header":{"parameterUnit":"m.s-1","parameterCategory":1,"la1":30.2992,"la2":30.254,"lo1":-89.0895,"lo2":-89.0443,"dy":0.0025,"dx":0.0025,"nx":19,"ny":19,"refTime":"2026-03-30T09:00:00:Z","depth":0,"parameterNumber":3,"parameterNumberName":"V-component_of_WINDS"},"data":[0,0,0,3.7799,3.78,3.785,3.785,3.7903,3.7904,0,0,0,0,0,0,0,0,0,0,0,3.7779,3.7779,3.7799,3.78,3.785,3.785,3.7903,3.7904,0,0,0,0,0,0,0,0,0,0,0,3.7779,3.7779,3.7779,3.78,3.785,3.7851,3.7903,3.7869,0,0,0,0,0,0,0,0,0,0,3.7822,3.7799,3.7779,3.7779,3.7801,3.785,3.7851,3.7868,3.7871,3.7877,0,3.7881,0,3.7894,3.7907,3.7907,0,0,0,3.7803,3.7796,3.7814,3.778,3.7801,3.785,3.7829,3.787,3.7874,3.7881,3.7882,3.7884,3.7894,3.7907,3.7907,3.7932,3.7931,0,0,3.7801,3.7785,3.7811,3.7817,3.781,3.7827,3.783,3.7872,3.7872,3.7882,3.7886,3.7895,3.7907,3.7908,3.7932,3.7932,0,0,0,3.779,3.7783,3.78,3.7814,3.7824,3.7828,3.7832,3.787,3.7877,3.7887,3.7896,3.7908,3.7908,3.7932,3.7932,3.7916,0,0,0,3.7789,3.7777,3.7799,3.779,3.7823,3.7848,3.7828,3.7874,3.7879,3.7896,3.7908,3.7909,3.7932,3.7932,3.7916,3.791,0,0,0,3.7777,3.7776,3.7781,3.7789,3.781,3.7848,3.7857,3.7876,3.7885,3.7907,3.7909,3.7932,3.7932,3.7917,3.7911,3.7913,0,0,0,3.776,3.7765,3.7781,3.779,3.781,3.7838,3.7857,3.7879,3.7896,3.7908,3.7932,3.7932,3.7917,3.7912,3.7913,3.7912,3.791,0,0,3.7757,3.7764,3.777,3.7786,3.7808,3.7831,3.785,3.7879,3.7895,3.7918,3.7919,3.7916,3.7911,3.7913,3.7902,3.7901,0,0,0,3.7764,3.7769,3.7778,3.7795,3.7818,3.7838,3.7867,3.7878,3.7898,3.7904,3.7917,3.7915,3.7916,3.7916,3.7915,3.7917,3.7931,3.7931,3.7931,3.7737,3.7759,3.7771,3.7798,3.7813,3.7843,3.7858,3.7877,3.7892,3.7895,3.7902,3.7894,3.7893,3.7892,3.7894,3.7903,3.7903,3.7903,3.7903,3.7736,3.7746,3.7767,3.7787,3.7809,3.7825,3.7853,3.7864,3.7881,3.789,3.7892,3.79,3.789,3.7893,3.7902,3.7902,3.7902,3.7902,3.7902,3.7721,3.773,3.7744,3.7771,3.7789,3.7815,3.7831,3.785,3.7867,3.7869,3.7879,3.788,3.7883,3.7873,3.7873,3.7873,3.7873,3.7873,3.7872,3.7701,3.7718,3.773,3.7757,3.777,3.779,3.782,3.7833,3.7852,3.7864,3.7864,3.7879,3.7885,3.7886,3.7872,3.7872,3.7872,3.7872,3.7872,3.7693,3.7698,3.7717,3.7731,3.7763,3.7779,3.7803,3.7828,3.7841,3.7848,3.7863,3.7864,3.7872,3.7873,3.7875,3.7858,3.7858,3.7858,3.7858,3.7681,3.7687,3.7712,3.7732,3.7754,3.7777,3.7797,3.782,3.7844,3.7854,3.7858,3.7862,3.7862,3.7869,3.7871,3.7873,3.7856,3.7856,3.7856,3.7678,3.7687,3.7701,3.7727,3.7753,3.7775,3.7795,3.7816,3.7844,3.7856,3.7861,3.7862,3.7867,3.7867,3.788,3.7882,3.7885,0,0]}]]